Voltar ao catálogo

COSMOS 374 DEB

AtivoLEO
NORAD 4667·DEBRIS·🇷🇺 Russia

Lançado Oct 23, 1970 de Baikonur Cosmodrome

Loading…

Próximas Passagens (próximas 24 horas)

TLE

AtualizadoSource: Space-Track

Época: Sep 14, 2026, 08:05 UTC

1 04667U 70089K   26257.33681430  .00003588  00000-0  88518-3 0  9994
2 04667  62.9286  26.5110 0659481 132.9719 232.8590 13.69124951700870

Acompanhe COSMOS 374 DEB em tempo real com AllMySat

Download on the App Store